Marshfield, WI

6:30 AM CST on November 21, 2019 (GMT -0600)
Marshfield Municipal

Weather History for KMFI - September, 2019

Change the Weather History Date:

Saturday, September 21, 2019

  Actual Average Record
Temperature  
Mean Temperature 70 °F -  
Max Temperature 73 °F 64 °F 86 °F (1920)
Min Temperature 68 °F 44 °F 30 °F (1999)
Cooling Degree Days 6    
Growing Degree Days 20 (Base 50)    
Moisture  
Dew Point 68 °F    
Average Humidity 91    
Maximum Humidity 96    
Minimum Humidity 84    
Precipitation  
Precipitation 0.02 in - - ()
Sea Level Pressure  
Sea Level Pressure 29.89 in    
Wind  
Wind Speed 9 mph (South)    
Max Wind Speed 15 mph    
Max Gust Speed 25 mph    
Visibility 7 miles    
Events Rain    
Averages and records for this station are not official NWS values.
T = Trace of Precipitation, MM = Missing Value Source: NWS Daily Summary

Daily Weather History Graph

Daily Weather History Graph

Search for Another Location

Airport or City:

Astronomy

Sep. 21, 2019 Rise Set
Actual Time 6:46 AM CDT 7:00 PM CDT
Civil Twilight 6:17 AM CDT 7:29 PM CDT
Nautical Twilight 5:42 AM CDT 8:03 PM CDT
Astronomical Twilight 5:07 AM CDT 8:38 PM CDT
Moon 11:22 PM CDT 2:08 PM CDT
Length of Visible Light 13h 12m
Length of Day
12h 14m
Waning Gibbous, 54% of the Moon is Illuminated
Sep 21
Waning Gibbous
Sep 21
Last Quarter
Sep 28
New
Oct 5
First Quarter
Oct 13
Full

Hourly Weather History & Observations

Time (CDT) Temp. Dew Point Humidity Pressure Visibility Wind Dir Wind Speed Gust Speed Precip Events Conditions
1:54 AM 69.1 °F 66.9 °F 93% 30.01 in 5.0 mi SE 5.8 mph - N/A   Clear
2:54 AM 68.0 °F 66.0 °F 93% 30.00 in 5.0 mi SE 5.8 mph - N/A   Clear
3:54 AM 68.0 °F 66.0 °F 93% 29.99 in 5.0 mi SSE 6.9 mph - N/A   Clear
4:54 AM 68.0 °F 66.0 °F 93% 29.98 in 5.0 mi SSE 5.8 mph - N/A   Clear
5:54 AM 68.0 °F 66.0 °F 93% 29.96 in 6.0 mi SSE 8.1 mph - N/A   Overcast
6:54 AM 68.0 °F 66.0 °F 93% 29.94 in 4.0 mi SSE 8.1 mph - N/A   Partly Cloudy
7:13 AM 69.1 °F 66.9 °F 93% 29.96 in 4.0 mi South 10.4 mph - N/A   Scattered Clouds
7:44 AM 69.1 °F 66.9 °F 93% 29.95 in 4.0 mi South 8.1 mph - N/A   Mostly Cloudy
7:54 AM 69.1 °F 66.9 °F 93% 29.94 in 4.0 mi South 9.2 mph - N/A   Mostly Cloudy
8:54 AM 70.0 °F 66.9 °F 90% 29.93 in 5.0 mi South 15.0 mph - N/A   Overcast
9:39 AM 71.1 °F 68.0 °F 90% 29.94 in 7.0 mi South 9.2 mph 20.7 mph N/A   Overcast
9:54 AM 71.1 °F 68.0 °F 90% 29.93 in 7.0 mi SSW 10.4 mph - N/A   Overcast
10:40 AM 71.1 °F 68.0 °F 90% 29.93 in 5.0 mi South 13.8 mph 23.0 mph N/A   Overcast
11:07 AM 71.1 °F 68.0 °F 90% 29.92 in 3.0 mi South 13.8 mph 21.9 mph 0.00 in Rain Light Rain
11:54 AM 71.1 °F 68.0 °F 90% 29.90 in 7.0 mi SSW 15.0 mph 25.3 mph 0.00 in   Overcast
12:54 PM 71.1 °F 68.0 °F 90% 29.90 in 3.0 mi SSW 9.2 mph - 0.00 in Rain Light Rain
1:17 PM 72.0 °F 69.1 °F 91% 29.90 in 10.0 mi South 9.2 mph - 0.00 in   Overcast
1:54 PM 73.0 °F 69.1 °F 87% 29.87 in 10.0 mi South 13.8 mph - 0.00 in   Overcast
2:54 PM 73.0 °F 70.0 °F 90% 29.85 in 9.0 mi South 9.2 mph - 0.00 in   Overcast
3:23 PM 73.0 °F 69.1 °F 87% 29.86 in 10.0 mi South 12.7 mph - N/A   Overcast
3:54 PM 73.0 °F 68.0 °F 84% 29.85 in 10.0 mi SSW 11.5 mph 23.0 mph N/A   Overcast
4:25 PM 72.0 °F 69.1 °F 91% 29.87 in 2.5 mi SSW 13.8 mph 23.0 mph 0.00 in Rain Light Rain
4:46 PM 71.1 °F 69.1 °F 93% 29.87 in 5.0 mi SSW 12.7 mph 21.9 mph 0.00 in Rain Light Rain
4:54 PM 71.1 °F 69.1 °F 93% 29.85 in 7.0 mi SSW 9.2 mph - 0.00 in   Overcast
5:33 PM 72.0 °F 69.1 °F 91% 29.86 in 10.0 mi SSW 10.4 mph - 0.00 in   Overcast
5:40 PM 72.0 °F 69.1 °F 91% 29.85 in 10.0 mi South 11.5 mph 20.7 mph 0.00 in   Overcast
5:54 PM 72.0 °F 69.1 °F 91% 29.84 in 10.0 mi South 11.5 mph - 0.00 in   Overcast
6:45 PM 72.0 °F 69.1 °F 91% 29.85 in 10.0 mi South 12.7 mph 21.9 mph N/A   Overcast
6:54 PM 72.0 °F 69.1 °F 91% 29.83 in 10.0 mi SSW 12.7 mph - N/A   Overcast
7:20 PM 72.0 °F 69.1 °F 91% 29.84 in 10.0 mi SSW 12.7 mph 19.6 mph N/A   Overcast
7:54 PM 71.1 °F 69.1 °F 93% 29.83 in 6.0 mi SSW 11.5 mph - 0.00 in Rain Light Rain
8:20 PM 71.1 °F 69.1 °F 93% 29.84 in 8.0 mi SSW 10.4 mph - 0.00 in   Overcast
8:32 PM 71.1 °F 69.1 °F 93% 29.84 in 6.0 mi SSW 10.4 mph - 0.00 in Rain Light Rain
8:54 PM 71.1 °F 69.1 °F 93% 29.83 in 7.0 mi SSW 11.5 mph 19.6 mph 0.00 in Rain Light Rain
9:24 PM 71.1 °F 69.1 °F 93% 29.85 in 4.0 mi SSW 9.2 mph - 0.01 in Rain Light Rain
9:54 PM 71.1 °F 70.0 °F 96% 29.84 in 9.0 mi SSW 10.4 mph - 0.01 in   Overcast
10:54 PM 72.0 °F 70.0 °F 93% 29.84 in 8.0 mi SW 8.1 mph - 0.00 in   Overcast
11:54 PM 72.0 °F 70.0 °F 93% 29.85 in 8.0 mi SSW 10.4 mph - 0.01 in   Overcast